Location: Caltech
(34.1382°N, 118.1253°W)
Time: 02:24:55
(UTC-07:00)

OPAL - Visible Passes

Search period start: 18 June 2018 00:00
Search period end: 28 June 2018 00:00
Orbit: 743 x 795 km, 100.2° (Epoch: 18 June)

Date Brightness Start Highest point End Pass type
(mag) Time Alt. Az. Time Alt. Az. Time Alt. Az.
18 Jun 7.4 22:50:21 70° E 22:50:28 70° ENE 22:55:28 10° N visible
19 Jun 8.5 22:14:20 28° E 22:15:09 30° ENE 22:19:29 10° N visible
19 Jun 9.1 23:54:38 25° W 23:54:38 25° W 23:58:06 10° NW visible
20 Jun 9.5 21:38:20 11° E 21:40:03 13° ENE 21:42:22 10° NE visible
20 Jun 7.7 23:18:37 61° W 23:18:37 61° W 23:23:18 10° NNW visible
21 Jun 7.6 22:42:36 54° E 22:42:52 55° ENE 22:47:46 10° N visible
22 Jun 9.8 00:22:53 13° W 00:22:53 13° W 00:24:28 10° WNW visible
22 Jun 8.8 22:06:36 22° E 22:07:37 24° ENE 22:11:35 10° NNE visible
22 Jun 8.8 23:46:53 32° W 23:46:53 32° W 23:50:46 10° NW visible
23 Jun 9.7 21:31:39 10° ENE 21:32:33 10° ENE 21:33:27 10° NE visible
23 Jun 7.4 23:10:52 78° WNW 23:10:52 78° WNW 23:15:44 10° NNW visible
24 Jun 8.0 22:34:52 42° E 22:35:16 43° ENE 22:40:02 10° N visible
25 Jun 9.6 00:15:09 17° W 00:15:09 17° W 00:17:37 10° NW visible
25 Jun 9.1 21:58:52 18° E 22:00:04 19° ENE 22:03:36 10° NNE visible
25 Jun 8.4 23:39:09 40° W 23:39:09 40° W 23:43:21 10° NNW visible
26 Jun 7.4 23:03:09 81° NE 23:03:09 81° NE 23:08:07 10° NNW visible
27 Jun 8.3 22:27:09 33° E 22:27:42 34° ENE 22:32:15 10° N visible
